This demonstration page uses our WeatherBlox Daily Observations layout. Learn more.

Left ArrowRight Arrow

38.80484, -77.04692

Hourly Observations for April 5, 2016

Temp ( °F °C ) Dew Point ( °F °C ) Humidity (%) Winds ( mph kmh ) Pressure ( in mb ) Visibility ( mi km ) Precip ( " mm )
12:39 am 00:39 Cloudy 40 4.4 29 -1.7 65 65 N 23 37 30.06 1018 10 16 0.00 0.00
12:52 am 00:52 Cloudy 40 4.4 29 -1.7 65 65 N 24 39 30.06 1018 10 16 0.00 0.00
1:52 am 01:52 Windy with Snow Likely 37 2.8 27 -2.8 67 67 NNE 20 31 30.09 1019 9 14 0.00 0.03
2:52 am 02:52 Cloudy 35 1.7 24 -4.4 64 64 NNE 23 37 30.11 1020 10 16 0.00 0.03
3:52 am 03:52 Cloudy 35 1.7 22 -5.6 59 59 N 21 33 30.15 1021 10 16 0.00 0.00
4:52 am 04:52 Mostly Cloudy 34 1.1 21 -6.1 59 59 N 17 28 30.18 1022 10 16 0.00 0.00
5:52 am 05:52 Mostly Clear 32 0 17 -8.3 54 54 NNW 24 39 30.22 1024 10 16 0.00 0.00
6:52 am 06:52 Mostly Sunny 31 -0.6 13 -10.6 47 47 N 20 31 30.27 1025 10 16 0.00 0.00
7:52 am 07:52 Mostly Sunny 32 0 13 -10.6 45 45 N 22 35 30.31 1027 10 16 0.00 0.00
8:52 am 08:52 Mostly Sunny 33 0.6 13 -10.6 43 43 N 29 46 30.34 1028 10 16 0.00 0.00
9:52 am 09:52 Mostly Sunny 35 1.7 14 -10 42 42 N 22 35 30.37 1029 10 16 0.00 0.00
10:52 am 10:52 Mostly Sunny 36 2.2 13 -10.6 39 39 NNE 20 31 30.38 1029 10 16 0.00 0.00
11:52 am 11:52 Mostly Sunny 40 4.4 15 -9.4 36 36 N 21 33 30.40 1029 10 16 0.00 0.00
12:52 pm 12:52 Mostly Sunny 41 5 13 -10.6 32 32 N 18 30 30.39 1029 10 16 0.00 0.00
1:52 pm 13:52 Mostly Sunny 42 5.6 12 -11.1 29 29 N 12 19 30.37 1029 10 16 0.00 0.00
2:52 pm 14:52 Sunny 44 6.7 14 -10 30 30 N 14 22 30.36 1028 10 16 0.00 0.00
3:52 pm 15:52 Mostly Sunny 45 7.2 13 -10.6 27 27 N 12 19 30.35 1028 10 16 0.00 0.00
4:52 pm 16:52 Sunny 45 7.2 14 -10 29 29 NNW 10 17 30.36 1028 10 16 0.00 0.00
5:52 pm 17:52 Sunny 46 7.8 14 -10 27 27 N 12 19 30.37 1028 10 16 0.00 0.00
6:52 pm 18:52 Sunny 44 6.7 14 -10 30 30 N 8 13 30.37 1028 10 16 0.00 0.00
7:52 pm 19:52 Clear 43 6 14 -10 31 31 W 8 13 30.39 1029 10 16 0.00 0.00
8:52 pm 20:52 Clear 42 5.6 12 -11.1 29 29 NNW 6 9 30.40 1029 10 16 0.00 0.00
9:52 pm 21:52 Clear 41 5 18 -7.8 39 39 E 6 9 30.40 1029 10 16 0.00 0.00
10:52 pm 22:52 Clear 40 4.4 18 -7.8 41 41 ESE 6 9 30.39 1029 10 16 0.00 0.00
11:52 pm 23:52 Clear 39 3.9 19 -7.2 45 45 SSW 3 6 30.40 1029 10 16 0.00 0.00

Powered by AerisWeather